| time (UTC) | temp F | wind direction | speed knots | gust knots | rain 1hr in | rain 24hr in | rain mn in | humidity % | barometer mb |
| 20260509134515 | 73 | 306 | 5.2 | 10.4 | 0.00 | 0.00 | 0.00 | 77 | 1010.6 |
| 20260509133020 | 73 | 310 | 7.8 | 12.2 | 0.00 | 0.00 | 0.00 | 78 | 1010.4 |
| 20260509131522 | 71 | 284 | 2.6 | 6.1 | 0.00 | 0.00 | 0.00 | 84 | 1010.1 |
| 20260509130028 | 70 | 169 | 0.0 | 0.0 | 0.00 | 0.00 | 0.00 | 90 | 1010.0 |
| 20260509124530 | 69 | 169 | 0.0 | 0.0 | 0.00 | 0.00 | 0.00 | 90 | 1010.1 |
| 20260509123009 | 68 | 169 | 0.0 | 0.0 | 0.00 | 0.00 | 0.00 | 90 | 1010.0 |
| 20260509121527 | 68 | 288 | 0.0 | 0.0 | 0.00 | 0.00 | 0.00 | 90 | 1010.2 |
| 20260509120022 | 68 | 288 | 0.0 | 0.0 | 0.00 | 0.00 | 0.00 | 89 | 1010.5 |
| 20260509114533 | 69 | 288 | 0.0 | 1.7 | 0.00 | 0.00 | 0.00 | 90 | 1010.6 |
| 20260509113033 | 69 | 286 | 0.0 | 1.7 | 0.00 | 0.00 | 0.00 | 90 | 1010.3 |
| 20260509111514 | 69 | 281 | 0.9 | 6.1 | 0.00 | 0.00 | 0.00 | 91 | 1010.2 |
| 20260509110020 | 69 | 280 | 5.2 | 13.0 | 0.00 | 0.00 | 0.00 | 91 | 1009.9 |
| 20260509104537 | 69 | 299 | 4.3 | 11.3 | 0.00 | 0.00 | 0.00 | 91 | 1009.7 |
| 20260509103006 | 68 | 224 | 2.6 | 7.8 | 0.00 | 0.00 | 0.00 | 91 | 1008.5 |
| 20260509101516 | 68 | 185 | 3.5 | 9.6 | 0.00 | 0.00 | 0.00 | 91 | 1007.9 |
| 20260509100016 | 68 | 180 | 5.2 | 13.9 | 0.00 | 0.00 | 0.00 | 90 | 1007.7 |
| 20260509094505 | 68 | 183 | 6.1 | 13.9 | 0.00 | 0.00 | 0.00 | 89 | 1007.6 |
| 20260509093002 | 68 | 172 | 7.8 | 14.8 | 0.00 | 0.00 | 0.00 | 89 | 1007.7 |
| 20260509091507 | 68 | 191 | 7.8 | 12.2 | 0.00 | 0.00 | 0.00 | 88 | 1007.7 |
| 20260509090014 | 68 | 169 | 4.3 | 7.0 | 0.00 | 0.00 | 0.00 | 87 | 1008.2 |
| 20260509084522 | 68 | 167 | 4.3 | 7.0 | 0.00 | 0.00 | 0.00 | 85 | 1008.6 |
| 20260509083022 | 68 | 173 | 2.6 | 7.8 | 0.00 | 0.00 | 0.00 | 85 | 1009.4 |
| 20260509081515 | 69 | 180 | 3.5 | 7.8 | 0.00 | 0.00 | 0.00 | 85 | 1009.9 |
| 20260509080012 | 69 | 192 | 0.9 | 6.1 | 0.00 | 0.00 | 0.00 | 85 | 1011.3 |
| 20260509074522 | 69 | 207 | 0.9 | 5.2 | 0.00 | 0.00 | 0.00 | 85 | 1011.5 |
| 20260509073020 | 69 | 256 | 0.9 | 3.5 | 0.00 | 0.00 | 0.00 | 85 | 1011.4 |
| 20260509071525 | 68 | 236 | 0.0 | 0.9 | 0.00 | 0.00 | 0.00 | 85 | 1011.3 |
| 20260509070012 | 68 | 275 | 0.0 | 1.7 | 0.00 | 0.00 | 0.00 | 85 | 1011.2 |
| 20260509064512 | 68 | 298 | 0.0 | 1.7 | 0.00 | 0.00 | 0.00 | 84 | 1011.5 |
| 20260509063025 | 68 | 350 | 0.0 | 2.6 | 0.00 | 0.00 | 0.00 | 84 | 1011.4 |
| 20260509061523 | 68 | 340 | 0.0 | 3.5 | 0.00 | 0.00 | 0.00 | 82 | 1011.3 |
| 20260509060029 | 68 | 355 | 0.9 | 1.7 | 0.00 | 0.00 | 0.00 | 80 | 1010.9 |
| 20260509054508 | 68 | 149 | 0.0 | 0.0 | 0.00 | 0.00 | 0.00 | 80 | 1010.6 |
| 20260509053011 | 69 | 149 | 0.0 | 0.9 | 0.00 | 0.00 | 0.00 | 80 | 1010.7 |
| 20260509051518 | 69 | 171 | 0.0 | 3.5 | 0.00 | 0.00 | 0.00 | 80 | 1010.4 |
| 20260509050022 | 69 | 163 | 0.0 | 2.6 | 0.00 | 0.00 | 0.00 | 79 | 1010.5 |
| 20260509044526 | 70 | 126 | 0.0 | 0.0 | 0.00 | 0.00 | 0.00 | 79 | 1011.2 |
| 20260509043011 | 71 | 126 | 0.0 | 1.7 | 0.00 | 0.00 | 0.00 | 79 | 1010.8 |
| 20260509041515 | 71 | 120 | 0.0 | 0.0 | 0.00 | 0.00 | 0.00 | 78 | 1010.7 |
| 20260509040022 | 71 | 120 | 0.0 | 0.0 | 0.00 | 0.00 | 0.00 | 78 | 1010.6 |
| 20260509034526 | 72 | 107 | 0.0 | 0.9 | 0.00 | 0.00 | 0.00 | 78 | 1010.6 |
| 20260509033028 | 72 | 144 | 0.0 | 1.7 | 0.00 | 0.00 | 0.00 | 78 | 1010.3 |
| 20260509031515 | 72 | 112 | 0.0 | 1.7 | 0.00 | 0.00 | 0.00 | 78 | 1010.2 |
| 20260509030014 | 71 | 165 | 0.0 | 3.5 | 0.00 | 0.00 | 0.00 | 79 | 1009.6 |
| 20260509024522 | 72 | 155 | 0.0 | 0.0 | 0.00 | 0.00 | 0.00 | 79 | 1009.7 |
| 20260509023029 | 72 | 155 | 0.0 | 0.0 | 0.00 | 0.00 | 0.00 | 79 | 1009.6 |
| 20260509021512 | 72 | 155 | 0.0 | 0.9 | 0.00 | 0.00 | 0.00 | 79 | 1009.5 |
| 20260509020024 | 72 | 177 | 0.0 | 0.9 | 0.00 | 0.00 | 0.00 | 79 | 1009.3 |
| 20260509014519 | 72 | 153 | 0.0 | 0.9 | 0.00 | 0.00 | 0.00 | 79 | 1009.2 |
| 20260509013037 | 72 | 153 | 0.0 | 1.7 | 0.00 | 0.00 | 0.00 | 78 | 1009.2 |
| 20260509011528 | 72 | 153 | 0.9 | 1.7 | 0.00 | 0.00 | 0.00 | 78 | 1009.2 |
| 20260509010012 | 73 | 153 | 0.9 | 4.3 | 0.00 | 0.00 | 0.00 | 78 | 1008.9 |
| 20260509004521 | 73 | 153 | 2.6 | 6.1 | 0.00 | 0.00 | 0.00 | 77 | 1008.5 |
| 20260509003024 | 74 | 174 | 0.9 | 3.5 | 0.00 | 0.00 | 0.00 | 76 | 1008.5 |
| 20260509001525 | 74 | 148 | 0.0 | 3.5 | 0.00 | 0.00 | 0.00 | 75 | 1008.5 |
| 20260509000028 | 74 | 121 | 1.7 | 4.3 | 0.00 | 0.00 | 0.00 | 75 | 1008.6 |
| 20260508234510 | 74 | 180 | 1.7 | 7.0 | 0.00 | 0.00 | 0.00 | 75 | 1008.6 |
| 20260508233022 | 74 | 126 | 1.7 | 7.8 | 0.00 | 0.00 | 0.00 | 75 | 1008.7 |
| 20260508231521 | 74 | 173 | 1.7 | 7.8 | 0.00 | 0.00 | 0.00 | 75 | 1008.7 |
| 20260508230037 | 74 | 183 | 3.5 | 10.4 | 0.00 | 0.00 | 0.00 | 75 | 1008.7 |
| 20260508224529 | 74 | 177 | 6.1 | 12.2 | 0.00 | 0.00 | 0.00 | 74 | 1008.8 |
| 20260508223021 | 74 | 153 | 4.3 | 9.6 | 0.00 | 0.00 | 0.00 | 74 | 1009.0 |
| 20260508221522 | 74 | 178 | 2.6 | 7.8 | 0.00 | 0.00 | 0.00 | 74 | 1009.1 |
| 20260508220027 | 73 | 179 | 1.7 | 6.1 | 0.00 | 0.00 | 0.00 | 73 | 1009.4 |
| 20260508214530 | 73 | 175 | 1.7 | 9.6 | 0.00 | 0.00 | 0.00 | 74 | 1009.4 |
| 20260508213037 | 72 | 111 | 6.1 | 14.8 | 0.00 | 0.00 | 0.00 | 75 | 1009.1 |
| 20260508211533 | 70 | 126 | 5.2 | 14.8 | 0.00 | 0.00 | 0.00 | 77 | 1009.1 |
| 20260508210026 | 69 | 118 | 7.0 | 11.3 | 0.00 | 0.00 | 0.00 | 78 | 1009.2 |
| 20260508204505 | 68 | 281 | 0.0 | 6.1 | 0.00 | 0.00 | 0.00 | 78 | 1011.6 |
| 20260508203005 | 70 | 178 | 2.6 | 9.6 | 0.00 | 0.00 | 0.00 | 76 | 1011.0 |
| 20260508201506 | 70 | 174 | 3.5 | 8.7 | 0.00 | 0.00 | 0.00 | 74 | 1011.4 |
| 20260508200004 | 71 | 165 | 4.3 | 8.7 | 0.00 | 0.00 | 0.00 | 73 | 1011.4 |
| 20260508194523 | 70 | 176 | 4.3 | 7.8 | 0.00 | 0.00 | 0.00 | 73 | 1011.2 |
| 20260508193006 | 70 | 143 | 3.5 | 6.1 | 0.00 | 0.00 | 0.00 | 72 | 1011.3 |
| 20260508191506 | 69 | 188 | 4.3 | 9.6 | 0.00 | 0.00 | 0.00 | 71 | 1011.6 |
| 20260508190012 | 70 | 191 | 3.5 | 10.4 | 0.00 | 0.00 | 0.00 | 72 | 1011.7 |
| 20260508184508 | 70 | 173 | 3.5 | 7.8 | 0.00 | 0.00 | 0.00 | 72 | 1012.0 |
| 20260508183016 | 70 | 161 | 1.7 | 7.0 | 0.00 | 0.00 | 0.00 | 72 | 1012.3 |
| 20260508181509 | 70 | 158 | 1.7 | 7.0 | 0.00 | 0.00 | 0.00 | 73 | 1012.4 |
| 20260508180015 | 70 | 128 | 3.5 | 7.0 | 0.00 | 0.00 | 0.00 | 70 | 1012.4 |
| 20260508174508 | 70 | 113 | 2.6 | 7.8 | 0.00 | 0.00 | 0.00 | 71 | 1012.6 |
| 20260508173010 | 69 | 113 | 2.6 | 7.8 | 0.00 | 0.00 | 0.00 | 72 | 1013.0 |
| 20260508171514 | 69 | 106 | 3.5 | 7.0 | 0.00 | 0.00 | 0.00 | 72 | 1013.1 |
| 20260508170010 | 69 | 168 | 3.5 | 9.6 | 0.00 | 0.00 | 0.00 | 72 | 1013.2 |
| 20260508164514 | 69 | 117 | 3.5 | 7.0 | 0.00 | 0.00 | 0.00 | 71 | 1013.3 |
| 20260508163017 | 68 | 143 | 1.7 | 6.1 | 0.00 | 0.00 | 0.00 | 73 | 1013.5 |
| 20260508161513 | 68 | 117 | 0.0 | 6.1 | 0.00 | 0.00 | 0.00 | 73 | 1014.0 |
| 20260508160012 | 67 | 118 | 0.0 | 3.5 | 0.00 | 0.00 | 0.00 | 73 | 1014.1 |
| 20260508154532 | 67 | 134 | 0.0 | 3.5 | 0.00 | 0.00 | 0.00 | 74 | 1014.4 |
| 20260508153015 | 66 | 190 | 0.9 | 3.5 | 0.00 | 0.00 | 0.00 | 74 | 1014.5 |
| 20260508151521 | 66 | 76 | 0.9 | 5.2 | 0.00 | 0.00 | 0.00 | 74 | 1014.6 |
| 20260508150014 | 66 | 117 | 0.9 | 5.2 | 0.00 | 0.00 | 0.00 | 73 | 1014.6 |
| 20260508144508 | 65 | 113 | 1.7 | 6.1 | 0.00 | 0.00 | 0.00 | 73 | 1014.6 |
| 20260508143017 | 66 | 126 | 1.7 | 6.1 | 0.00 | 0.00 | 0.00 | 72 | 1014.5 |
| 20260508141522 | 66 | 110 | 3.5 | 7.0 | 0.00 | 0.00 | 0.00 | 72 | 1014.4 |
| 20260508140003 | 65 | 75 | 2.6 | 7.0 | 0.00 | 0.00 | 0.00 | 73 | 1014.6 |